Harrisburg, PA

6:10 PM EDT on May 22, 2018 (GMT -0400)
Capital City

Weather History for KCXY - November, 2012

Change the Weather History Date:

Wednesday, November 7, 2012

  Actual Average Record
Temperature  
Mean Temperature 39 °F -  
Max Temperature 43 °F 54 °F 74 °F (1975)
Min Temperature 35 °F 36 °F 24 °F (1962)
Degree Days  
Heating Degree Days 26    
Moisture  
Dew Point 22 °F    
Average Humidity 51    
Maximum Humidity 70    
Minimum Humidity 37    
Precipitation  
Precipitation 0.00 in - - ()
Sea Level Pressure  
Sea Level Pressure 29.97 in    
Wind  
Wind Speed 4 mph (NNW)    
Max Wind Speed 13 mph    
Max Gust Speed -    
Visibility 10 miles    
Events      
Averages and records for this station are not official NWS values.
T = Trace of Precipitation, MM = Missing Value Source: NWS Daily Summary

Daily Weather History Graph

Daily Weather History Graph

Search for Another Location

Airport or City:

Astronomy

Nov. 07, 2012 Rise Set
Actual Time 6:44 AM EST 4:57 PM EST
Civil Twilight 6:15 AM EST 5:26 PM EST
Nautical Twilight 5:43 AM EST 5:58 PM EST
Astronomical Twilight 5:11 AM EST 6:30 PM EST
Moon No Moon Rise 1:05 PM EST (11/7)
Length of Visible Light 11h 10m
Length of Day
10h 13m
Last Quarter, 43% of the Moon is Illuminated
Nov 7
Last Quarter
Nov 13
New
Nov 20
First Quarter
Nov 28
Full
Dec 6
Last Quarter

Hourly Weather History & Observations

Time (EST) Temp. Windchill Dew Point Humidity Pressure Visibility Wind Dir Wind Speed Gust Speed Precip Events Conditions
12:56 AM 35.1 °F 32.2 °F 26.1 °F 70% 30.06 in 10.0 mi East 3.5 mph - N/A   Clear
1:56 AM 36.0 °F - 25.0 °F 64% 30.04 in 10.0 mi Calm Calm - N/A   Clear
2:56 AM 35.1 °F - 24.1 °F 64% 30.01 in 10.0 mi Calm Calm - N/A   Clear
3:56 AM 36.0 °F 33.3 °F 21.9 °F 57% 30.00 in 10.0 mi North 3.5 mph - N/A   Clear
4:56 AM 36.0 °F - 21.9 °F 57% 29.99 in 10.0 mi Calm Calm - N/A   Mostly Cloudy
5:56 AM 36.0 °F 33.3 °F 21.0 °F 55% 29.98 in 10.0 mi North 3.5 mph - N/A   Overcast
6:14 AM 37.4 °F - 21.2 °F 52% 29.98 in 10.0 mi Calm Calm - N/A   Overcast
6:36 AM 37.4 °F - 21.2 °F 52% 29.99 in 10.0 mi Calm Calm - N/A   Overcast
6:56 AM 37.0 °F 34.5 °F 21.9 °F 54% 30.01 in 10.0 mi Variable 3.5 mph - N/A   Mostly Cloudy
7:56 AM 37.0 °F 34.5 °F 21.0 °F 52% 30.01 in 10.0 mi Variable 3.5 mph - N/A   Mostly Cloudy
8:19 AM 37.4 °F 32.8 °F 19.4 °F 48% 29.99 in 10.0 mi NE 5.8 mph - N/A   Mostly Cloudy
8:56 AM 37.9 °F 34.4 °F 18.0 °F 45% 30.00 in 10.0 mi North 4.6 mph - N/A   Overcast
9:56 AM 39.0 °F 35.7 °F 23.0 °F 53% 29.97 in 10.0 mi Variable 4.6 mph - N/A   Overcast
10:56 AM 39.0 °F 34.0 °F 24.1 °F 55% 29.97 in 10.0 mi NW 6.9 mph - N/A   Mostly Cloudy
11:56 AM 39.9 °F 35.1 °F 24.1 °F 53% 29.95 in 10.0 mi NNW 6.9 mph - N/A   Partly Cloudy
12:56 PM 42.1 °F 38.4 °F 25.0 °F 51% 29.94 in 10.0 mi NNW 5.8 mph - N/A   Clear
1:56 PM 43.0 °F 39.5 °F 25.0 °F 49% 29.94 in 10.0 mi NNW 5.8 mph - N/A   Scattered Clouds
2:56 PM 43.0 °F 38.8 °F 26.1 °F 51% 29.94 in 10.0 mi NW 6.9 mph - N/A   Overcast
3:56 PM 43.0 °F 38.8 °F 25.0 °F 49% 29.94 in 10.0 mi NNW 6.9 mph - N/A   Overcast
4:56 PM 43.0 °F 40.3 °F 24.1 °F 47% 29.94 in 10.0 mi NNW 4.6 mph - N/A   Overcast
5:56 PM 43.0 °F 38.8 °F 21.9 °F 43% 29.95 in 10.0 mi NNW 6.9 mph - N/A   Mostly Cloudy
6:56 PM 43.0 °F 38.2 °F 18.0 °F 37% 29.96 in 10.0 mi NNW 8.1 mph - N/A   Overcast
7:56 PM 42.1 °F 38.4 °F 19.9 °F 41% 29.96 in 10.0 mi Variable 5.8 mph - N/A   Mostly Cloudy
8:56 PM 42.1 °F 35.7 °F 21.0 °F 43% 29.96 in 10.0 mi North 11.5 mph - N/A   Overcast
9:56 PM 41.0 °F 36.4 °F 21.0 °F 45% 29.95 in 10.0 mi NNW 6.9 mph - N/A   Overcast
10:56 PM 41.0 °F 35.2 °F 21.0 °F 45% 29.95 in 10.0 mi NNW 9.2 mph - N/A   Overcast
11:56 PM 39.9 °F 32.5 °F 19.0 °F 43% 29.94 in 10.0 mi NNW 12.7 mph - N/A   Overcast